Tracking 35280 objects as of 7-Sep-2026
HD Live streaming from Space Station
objects crossing your sky now

SL-4 R/B


SL-4 R/B is no longer on orbit


NORAD ID: 13064
Int'l Code: 1982-011B
Launch date: February 16, 1982
Source: Commonwealth of Independent States (former USSR) (CIS)
Launch site: PLESETSK MISSILE AND SPACE COMPLEX (PKMTR)
Decay date: 1982-02-24

Note: This is a ROCKET BODY
Your satellite tracking list
Your tracking list is empty




NASA's NSSDC Master Catalog

Two Line Element Set (TLE):
1 13064U 82011  B 82055.02952196  .22591236 +89926-5 +40257-3 0  9990
2 13064 072.8199 298.9309 0024957 075.2554 285.1526 16.45198247001228
Source of the keplerian elements: AFSPC